User: anonymous
Location: Unspecified
(0.0000°N, 0.0000°E)
Time: 04:33:50
(UTC+00:00)
Language:

NAVSTAR 65 (USA 213) - Orbit

View from above orbital plane
View from above orbital plane
View from above satellite
View from above satellite

Ground track
Ground track

The orbit data is extracted from the following two-line orbital elements,

1 36585U 10022A   14109.53282700 -.00000054  00000-0  00000+0 0  5506
2 36585 055.9205 026.3637 0033873 034.0098 266.4722 02.00569991 28516
Epoch (UTC): 19 April 2014 12:47:16
Eccentricity: 0.0033873
inclination: 55.9205°
perigee height: 20091 km
apogee height: 20271 km
right ascension of ascending node: 26.3637°
argument of perigee: 34.0098°
revolutions per day: 2.00569991
mean anomaly at epoch: 266.4722°
orbit number at epoch: 2851

The dashed part of the orbit path shows where the satellite is in the earth's shadow,  

DLR